TimeEST,TemperatureF,Dew PointF,Humidity,Sea Level PressureIn,VisibilityMPH,Wind Direction,Wind SpeedMPH,Gust SpeedMPH,PrecipitationIn,Events,Conditions,WindDirDegrees,DateUTC
12:55 AM,52.7,50.2,91,30.33,10.0,East,3.5,-,N/A,,Clear,80,2012-11-11 05:55:00
1:55 AM,52.2,50.7,95,30.32,10.0,ENE,3.5,-,N/A,,Clear,70,2012-11-11 06:55:00
2:55 AM,49.3,47.7,94,30.32,10.0,Calm,Calm,-,N/A,,Scattered Clouds,0,2012-11-11 07:55:00
3:55 AM,53.1,52.2,97,30.30,10.0,Calm,Calm,-,N/A,,Overcast,0,2012-11-11 08:55:00
4:55 AM,54.1,53.2,97,30.32,10.0,Calm,Calm,-,N/A,,Overcast,0,2012-11-11 09:55:00
5:55 AM,55.2,53.8,95,30.32,10.0,ENE,3.5,-,N/A,,Overcast,70,2012-11-11 10:55:00
6:55 AM,53.6,53.4,99,30.34,10.0,ENE,3.5,-,N/A,,Mostly Cloudy,70,2012-11-11 11:55:00
7:55 AM,55.8,55.0,97,30.36,10.0,NE,3.5,-,N/A,,Overcast,50,2012-11-11 12:55:00
8:55 AM,61.0,56.7,86,30.36,10.0,East,4.6,-,N/A,,Scattered Clouds,80,2012-11-11 13:55:00
9:55 AM,69.3,56.5,64,30.37,10.0,ENE,6.9,-,N/A,,Clear,60,2012-11-11 14:55:00
10:55 AM,73.6,55.9,54,30.37,10.0,East,11.5,17.3,N/A,,Clear,100,2012-11-11 15:55:00
11:55 AM,75.6,55.0,49,30.35,10.0,ESE,11.5,-,N/A,,Mostly Cloudy,120,2012-11-11 16:55:00
12:55 PM,74.3,55.8,52,30.33,10.0,East,10.4,-,N/A,,Overcast,80,2012-11-11 17:55:00
1:55 PM,76.8,55.4,47,30.30,10.0,East,6.9,-,N/A,,Scattered Clouds,80,2012-11-11 18:55:00
2:55 PM,78.1,55.6,46,30.28,10.0,ESE,11.5,-,N/A,,Scattered Clouds,110,2012-11-11 19:55:00
3:55 PM,76.5,56.5,50,30.28,10.0,ESE,10.4,-,N/A,,Clear,110,2012-11-11 20:55:00
4:55 PM,73.9,57.6,56,30.28,10.0,East,10.4,-,N/A,,Partly Cloudy,90,2012-11-11 21:55:00
5:55 PM,70.0,57.0,63,30.29,10.0,East,5.8,-,N/A,,Clear,90,2012-11-11 22:55:00
6:55 PM,68.0,57.6,69,30.30,10.0,East,5.8,-,N/A,,Clear,90,2012-11-11 23:55:00
7:55 PM,65.5,57.0,74,30.29,10.0,East,6.9,-,N/A,,Clear,90,2012-11-12 00:55:00
8:55 PM,64.4,57.9,79,30.30,10.0,East,6.9,-,N/A,,Clear,100,2012-11-12 01:55:00
9:55 PM,64.2,58.3,81,30.29,10.0,East,6.9,-,N/A,,Clear,100,2012-11-12 02:55:00
10:55 PM,64.0,58.1,81,30.30,10.0,East,6.9,-,N/A,,Clear,90,2012-11-12 03:55:00
11:55 PM,62.2,58.3,87,30.29,10.0,East,5.8,-,N/A,,Partly Cloudy,100,2012-11-12 04:55:00